N525T KIAD-KDCA

Flight info

Callsign N525T
Flight time 0h 16m
Altitude 3500
Route DCA
Aircraft C208/L-SDFGR/C

Departure

Time 2026-05-06 01:47
Airport Washington Dulles International Airport (KIAD)

Arrival

Time 2026-05-06 02:04
Airport Ronald Reagan Washington National Airport (KDCA)
Time Latitude Longitude Altitude Speed Heading
2026-05-06 01:30 38.95691 -77.44000 292 ft 0 kts 45°
2026-05-06 01:31 38.95690 -77.44000 292 ft 0 kts 45°
2026-05-06 01:33 38.95690 -77.44001 292 ft 0 kts 45°
2026-05-06 01:37 38.95689 -77.44002 292 ft 0 kts 46°
2026-05-06 01:41 38.95689 -77.44003 290 ft 0 kts 46°
2026-05-06 01:41 38.95691 -77.43999 292 ft 5 kts 59°
2026-05-06 01:41 38.95641 -77.43955 290 ft 15 kts 177°
2026-05-06 01:41 38.95521 -77.43957 291 ft 17 kts 180°
2026-05-06 01:42 38.95487 -77.43794 287 ft 16 kts 91°
2026-05-06 01:42 38.95485 -77.43706 286 ft 0 kts 92°
2026-05-06 01:43 38.95485 -77.43707 286 ft 0 kts 92°
2026-05-06 01:46 38.95485 -77.43704 286 ft 6 kts 92°
2026-05-06 01:46 38.95481 -77.43614 286 ft 13 kts 108°
2026-05-06 01:46 38.95416 -77.43597 285 ft 13 kts 180°
2026-05-06 01:46 38.95022 -77.43599 354 ft 89 kts 181°
2026-05-06 01:47 38.94368 -77.43612 811 ft 95 kts 184°
2026-05-06 01:47 38.93719 -77.43622 1343 ft 87 kts 188°
2026-05-06 01:47 38.93170 -77.43607 2013 ft 78 kts 189°
2026-05-06 01:47 38.92595 -77.43586 2403 ft 95 kts 189°
2026-05-06 01:48 38.91813 -77.43556 2402 ft 126 kts 187°
2026-05-06 01:48 38.90884 -77.43518 2406 ft 139 kts 186°
2026-05-06 01:48 38.89899 -77.43451 2400 ft 143 kts 182°
2026-05-06 01:48 38.89009 -77.42737 2397 ft 169 kts 139°
2026-05-06 01:49 38.88700 -77.41209 2390 ft 196 kts 96°
2026-05-06 01:49 38.89268 -77.39538 2389 ft 212 kts 52°
2026-05-06 01:49 38.90487 -77.38597 2390 ft 203 kts
2026-05-06 01:49 38.91858 -77.38541 2402 ft 189 kts 349°
2026-05-06 01:50 38.93137 -77.38616 2397 ft 184 kts 349°
2026-05-06 01:50 38.94415 -77.38697 2399 ft 184 kts 349°
2026-05-06 01:50 38.95692 -77.38784 2407 ft 184 kts 349°
2026-05-06 01:50 38.96972 -77.38874 2396 ft 184 kts 348°
2026-05-06 01:51 38.98244 -77.38957 2408 ft 182 kts 349°
2026-05-06 01:51 38.99508 -77.39030 2410 ft 182 kts 349°
2026-05-06 01:51 39.00761 -77.39128 2408 ft 180 kts 349°
2026-05-06 01:51 39.02018 -77.39236 2413 ft 182 kts 349°
2026-05-06 01:52 39.03296 -77.39351 2400 ft 185 kts 348°
2026-05-06 01:52 39.04587 -77.39440 2406 ft 187 kts 349°
2026-05-06 01:52 39.05886 -77.39324 2398 ft 193 kts 14°
2026-05-06 01:52 39.06964 -77.38344 2403 ft 191 kts 58°
2026-05-06 01:53 39.07425 -77.36840 2415 ft 174 kts 98°
2026-05-06 01:53 39.07148 -77.35445 2413 ft 157 kts 128°
2026-05-06 01:53 39.06688 -77.34177 2413 ft 157 kts 129°
2026-05-06 01:53 39.06224 -77.32909 2411 ft 157 kts 129°
2026-05-06 01:54 39.05755 -77.31637 2419 ft 158 kts 129°
2026-05-06 01:54 39.05282 -77.30351 2429 ft 159 kts 129°
2026-05-06 01:54 39.04812 -77.29067 2424 ft 159 kts 129°
2026-05-06 01:54 39.04661 -77.27588 2410 ft 184 kts 88°
2026-05-06 01:55 39.05201 -77.26056 2422 ft 189 kts 68°
2026-05-06 01:55 39.05820 -77.24556 2418 ft 191 kts 69°
2026-05-06 01:55 39.06434 -77.23052 2422 ft 188 kts 69°
2026-05-06 01:55 39.07040 -77.21567 2414 ft 186 kts 69°
2026-05-06 01:56 39.07637 -77.20103 2426 ft 185 kts 69°
2026-05-06 01:56 39.08062 -77.18583 2456 ft 175 kts 93°
2026-05-06 01:56 39.08037 -77.17047 2714 ft 170 kts 113°
2026-05-06 01:56 39.07610 -77.15709 2919 ft 160 kts 137°
2026-05-06 01:57 39.06887 -77.14621 2935 ft 158 kts 158°
2026-05-06 01:57 39.05895 -77.14087 2932 ft 154 kts 174°
2026-05-06 01:57 39.04861 -77.13951 2929 ft 148 kts 187°
2026-05-06 01:57 39.03830 -77.13946 2929 ft 148 kts 188°
2026-05-06 01:58 39.02806 -77.13937 2929 ft 147 kts 188°
2026-05-06 01:58 39.01783 -77.13927 2931 ft 147 kts 188°
2026-05-06 01:58 39.00764 -77.13918 2930 ft 147 kts 188°
2026-05-06 01:58 38.99745 -77.13888 2924 ft 145 kts 188°
2026-05-06 01:59 38.98786 -77.13894 2731 ft 130 kts 189°
2026-05-06 01:59 38.97916 -77.13958 2504 ft 125 kts 191°
2026-05-06 01:59 38.97044 -77.13921 2296 ft 125 kts 182°
2026-05-06 01:59 38.96199 -77.13591 2097 ft 127 kts 172°
2026-05-06 02:00 38.95401 -77.13183 1891 ft 121 kts 167°
2026-05-06 02:00 38.94622 -77.12731 1833 ft 125 kts 166°
2026-05-06 02:00 38.93843 -77.12116 1753 ft 137 kts 156°
2026-05-06 02:00 38.93082 -77.11416 1709 ft 137 kts 159°
2026-05-06 02:01 38.92260 -77.10771 1568 ft 141 kts 161°
2026-05-06 02:01 38.91448 -77.10051 1451 ft 144 kts 150°
2026-05-06 02:01 38.90776 -77.09029 1357 ft 156 kts 127°
2026-05-06 02:01 38.90458 -77.07691 1170 ft 158 kts 115°
2026-05-06 02:02 38.89950 -77.06571 1029 ft 129 kts 142°
2026-05-06 02:02 38.89337 -77.05894 900 ft 105 kts 149°
2026-05-06 02:02 38.88781 -77.05354 744 ft 97 kts 149°
2026-05-06 02:02 38.88227 -77.04840 640 ft 98 kts 151°
2026-05-06 02:03 38.87667 -77.04378 499 ft 94 kts 155°
2026-05-06 02:03 38.87071 -77.04047 338 ft 91 kts 169°
2026-05-06 02:03 38.86449 -77.03906 119 ft 91 kts 179°
2026-05-06 02:03 38.85850 -77.03845 35 ft 80 kts 179°
2026-05-06 02:04 38.85452 -77.03805 25 ft 33 kts 180°
2026-05-06 02:04 38.85314 -77.03800 21 ft 17 kts 207°
2026-05-06 02:04 38.85289 -77.03813 20 ft 13 kts 208°
2026-05-06 02:04 38.85282 -77.03822 20 ft 14 kts 230°
2026-05-06 02:05 38.85277 -77.03830 20 ft 16 kts 226°